Weather History for KMWO - September, 2013

Change the Weather History Date:

Friday, September 13, 2013

  Actual Average (KDAY) Record (KDAY)
Temperature  
Mean Temperature 58 °F 67 °F  
Max Temperature 65 °F 77 °F 100 °F (1897)
Min Temperature 52 °F 56 °F 38 °F (1964)
Degree Days  
Heating Degree Days 6 2  
Month to date heating degree days 16  
Since 1 July heating degree days 18  
Cooling Degree Days 0 3  
Month to date cooling degree days 62  
Year to date cooling degree days 844  
Growing Degree Days 8 (Base 50)    
Moisture  
Dew Point 45 °F    
Average Humidity 63    
Maximum Humidity 86    
Minimum Humidity 39    
Precipitation  
Precipitation 0.00 in 0.12 in 2.54 in (1925)
Month to date precipitation 1.47  
Year to date precipitation 29.78  
Snow  
Snow 0.00 in 0.00 in - ()
Month to date snowfall 0.0  
Since 1 July snowfall 0.0  
Since 1 September snowfall 0.0  
Snow Depth -    
Sea Level Pressure  
Sea Level Pressure 30.06 in    
Wind  
Wind Speed 8 mph (North)    
Max Wind Speed 15 mph    
Max Gust Speed 21 mph    
Visibility 10 miles    
Events      
T = Trace of Precipitation, MM = Missing Value Source: NWS Daily Summary

Daily Weather History Graph

Daily Weather History Graph

Search for Another Location

Airport or City:

Trip Planner

Search our weather history database for the weather conditions in past years. The results will help you decide how hot, cold, wet, or windy it might be!

Date:

Astronomy

Sep. 13, 2013 Rise Set
Actual Time 7:17 AM EDT 7:48 PM EDT
Civil Twilight 6:50 AM EDT 8:15 PM EDT
Nautical Twilight 6:18 AM EDT 8:47 PM EDT
Astronomical Twilight 5:45 AM EDT 9:20 PM EDT
Moon 3:36 PM EDT (9/13) 12:46 AM EDT (9/13)
Length of Visible Light 13h 25m
Length of Day
12h 31m
First Quarter, 61% of the Moon is Illuminated
Sep 13
First Quarter
Sep 19
Full
Sep 26
Last Quarter
Oct 4
New
Oct 11
First Quarter

Hourly Weather History & Observations

Time (EDT) Temp. Dew Point Humidity Pressure Visibility Wind Dir Wind Speed Gust Speed Precip Events Conditions
12:15 AM 65.3 °F 59.0 °F 80% 29.96 in 10.0 mi North 11.5 mph 16.1 mph N/A   Clear
12:35 AM 63.9 °F 57.7 °F 80% 29.97 in 10.0 mi North 6.9 mph - N/A   Clear
12:55 AM 62.6 °F 56.8 °F 81% 29.97 in 10.0 mi North 4.6 mph - N/A   Clear
1:15 AM 62.6 °F 56.3 °F 80% 29.97 in 10.0 mi North 6.9 mph - N/A   Clear
1:35 AM 61.3 °F 53.1 °F 74% 29.98 in 10.0 mi NNE 12.7 mph 18.4 mph N/A   Clear
1:55 AM 60.1 °F 52.7 °F 77% 29.99 in 10.0 mi North 5.8 mph - N/A   Clear
2:15 AM 60.1 °F 54.3 °F 81% 29.99 in 10.0 mi North 8.1 mph - N/A   Clear
2:35 AM 59.2 °F 52.7 °F 79% 30.00 in 10.0 mi North 6.9 mph - N/A   Clear
2:55 AM 59.0 °F 52.3 °F 79% 30.00 in 10.0 mi North 4.6 mph - N/A   Clear
3:15 AM 59.0 °F 52.0 °F 78% 30.00 in 10.0 mi North 8.1 mph - N/A   Clear
3:35 AM 57.7 °F 51.1 °F 78% 30.00 in 10.0 mi North 5.8 mph - N/A   Clear
3:55 AM 57.7 °F 51.4 °F 79% 30.00 in 10.0 mi North 5.8 mph - N/A   Clear
4:15 AM 57.7 °F 52.0 °F 81% 30.00 in 10.0 mi North 8.1 mph - N/A   Clear
4:35 AM 57.7 °F 51.1 °F 78% 30.01 in 10.0 mi North 4.6 mph - N/A   Clear
4:55 AM 57.2 °F 51.1 °F 80% 30.02 in 10.0 mi North 5.8 mph - N/A   Clear
5:15 AM 55.4 °F 49.5 °F 80% 30.02 in 10.0 mi North 5.8 mph - N/A   Clear
5:35 AM 55.4 °F 48.7 °F 78% 30.02 in 10.0 mi NNW 5.8 mph - N/A   Clear
5:55 AM 55.4 °F 47.3 °F 74% 30.03 in 10.0 mi North 4.6 mph - N/A   Clear
6:15 AM 55.4 °F 47.3 °F 74% 30.03 in 10.0 mi North 5.8 mph - N/A   Clear
6:35 AM 55.4 °F 47.3 °F 74% 30.03 in 10.0 mi NE 4.6 mph - N/A   Clear
6:55 AM 54.7 °F 46.9 °F 75% 30.04 in 10.0 mi Calm Calm - N/A   Clear
7:15 AM 52.7 °F 46.4 °F 79% 30.05 in 10.0 mi Calm Calm - N/A   Clear
7:35 AM 52.7 °F 47.5 °F 82% 30.05 in 10.0 mi Calm Calm - N/A   Clear
7:55 AM 52.7 °F 48.6 °F 86% 30.05 in 10.0 mi Calm Calm - N/A   Clear
8:15 AM 52.9 °F 48.2 °F 84% 30.05 in 10.0 mi NW 3.5 mph - N/A   Clear
8:35 AM 55.4 °F 48.9 °F 79% 30.05 in 10.0 mi NNW 4.6 mph - N/A   Clear
8:55 AM 56.1 °F 48.4 °F 75% 30.05 in 10.0 mi North 8.1 mph - N/A   Clear
9:15 AM 57.7 °F 48.4 °F 71% 30.06 in 10.0 mi North 9.2 mph 18.4 mph N/A   Clear
9:35 AM 57.7 °F 46.6 °F 66% 30.06 in 10.0 mi North 11.5 mph 16.1 mph N/A   Scattered Clouds
9:55 AM 57.7 °F 45.3 °F 63% 30.06 in 10.0 mi NNE 9.2 mph - N/A   Scattered Clouds
10:15 AM 57.7 °F 44.4 °F 61% 30.07 in 10.0 mi NNW 11.5 mph - N/A   Scattered Clouds
10:35 AM 57.7 °F 41.7 °F 55% 30.08 in 10.0 mi North 11.5 mph 17.3 mph N/A   Scattered Clouds
10:55 AM 58.5 °F 41.9 °F 54% 30.08 in 10.0 mi North 9.2 mph 19.6 mph N/A   Mostly Cloudy
11:15 AM 57.9 °F 41.2 °F 54% 30.08 in 10.0 mi North 9.2 mph 16.1 mph N/A   Mostly Cloudy
11:35 AM 58.1 °F 40.3 °F 52% 30.08 in 10.0 mi NNE 10.4 mph - N/A   Mostly Cloudy
11:55 AM 58.6 °F 39.6 °F 49% 30.09 in 10.0 mi NNW 9.2 mph - N/A   Mostly Cloudy
12:15 PM 59.0 °F 39.2 °F 48% 30.08 in 10.0 mi North 8.1 mph 16.1 mph N/A   Overcast
12:35 PM 60.1 °F 38.8 °F 45% 30.09 in 10.0 mi North 10.4 mph 17.3 mph N/A   Overcast
12:55 PM 59.4 °F 39.2 °F 47% 30.09 in 10.0 mi NNW 13.8 mph 20.7 mph N/A   Overcast
1:15 PM 59.0 °F 38.1 °F 46% 30.09 in 10.0 mi North 12.7 mph 20.7 mph N/A   Overcast
1:35 PM 59.0 °F 39.6 °F 49% 30.09 in 10.0 mi North 15.0 mph 20.7 mph N/A   Overcast
1:55 PM 60.3 °F 38.1 °F 44% 30.09 in 10.0 mi NNE 12.7 mph 20.7 mph N/A   Mostly Cloudy
2:15 PM 60.8 °F 38.3 °F 43% 30.08 in 10.0 mi North 10.4 mph 18.4 mph N/A   Overcast
2:35 PM 60.8 °F 39.0 °F 45% 30.08 in 10.0 mi NNW 10.4 mph 18.4 mph N/A   Overcast
2:55 PM 62.4 °F 40.5 °F 44% 30.06 in 10.0 mi North 8.1 mph - N/A   Overcast
3:15 PM 61.9 °F 40.6 °F 46% 30.07 in 10.0 mi North 11.5 mph 16.1 mph N/A   Overcast
3:35 PM 62.6 °F 40.1 °F 44% 30.06 in 10.0 mi North 8.1 mph - N/A   Mostly Cloudy
3:55 PM 63.1 °F 39.2 °F 41% 30.06 in 10.0 mi NNE 12.7 mph 16.1 mph N/A   Mostly Cloudy
4:15 PM 62.6 °F 39.9 °F 43% 30.06 in 10.0 mi NNE 9.2 mph - N/A   Overcast
4:35 PM 62.6 °F 40.3 °F 44% 30.06 in 10.0 mi North 9.2 mph - N/A   Overcast
4:55 PM 62.6 °F 38.5 °F 41% 30.06 in 10.0 mi North 10.4 mph - N/A   Overcast
5:15 PM 65.5 °F 40.3 °F 40% 30.06 in 10.0 mi North 10.4 mph - N/A   Overcast
5:35 PM 64.9 °F 39.0 °F 39% 30.06 in 10.0 mi NNE 9.2 mph - N/A   Overcast
5:55 PM 62.6 °F 37.9 °F 40% 30.07 in 10.0 mi North 9.2 mph - N/A   Overcast
6:15 PM 62.4 °F 38.1 °F 41% 30.07 in 10.0 mi North 10.4 mph - N/A   Overcast
6:35 PM 62.6 °F 37.8 °F 40% 30.07 in 10.0 mi NNE 9.2 mph - N/A   Overcast
6:55 PM 60.8 °F 37.8 °F 42% 30.07 in 10.0 mi North 6.9 mph - N/A   Mostly Cloudy
7:15 PM 60.1 °F 38.8 °F 45% 30.08 in 10.0 mi NNE 5.8 mph - N/A   Mostly Cloudy
7:35 PM 59.9 °F 40.5 °F 49% 30.08 in 10.0 mi NNE 4.6 mph - N/A   Overcast
7:55 PM 58.3 °F 40.5 °F 52% 30.08 in 10.0 mi North 4.6 mph - N/A   Mostly Cloudy
8:15 PM 57.7 °F 43.2 °F 58% 30.08 in 10.0 mi NNW 4.6 mph - N/A   Mostly Cloudy
8:35 PM 55.4 °F 42.8 °F 63% 30.09 in 10.0 mi NNW 4.6 mph - N/A   Clear
8:55 PM 55.4 °F 43.9 °F 65% 30.09 in 10.0 mi North 4.6 mph - N/A   Scattered Clouds
9:15 PM 55.4 °F 44.8 °F 67% 30.10 in 10.0 mi North 4.6 mph - N/A   Mostly Cloudy
9:35 PM 55.4 °F 44.6 °F 67% 30.10 in 10.0 mi North 4.6 mph - N/A   Scattered Clouds
9:55 PM 54.0 °F 44.2 °F 70% 30.11 in 10.0 mi North 5.8 mph - N/A   Clear
10:15 PM 52.7 °F 43.7 °F 71% 30.11 in 10.0 mi North 5.8 mph - N/A   Clear
10:35 PM 55.2 °F 43.3 °F 64% 30.11 in 10.0 mi NNE 6.9 mph - N/A   Clear
10:55 PM 52.7 °F 41.4 °F 65% 30.12 in 10.0 mi NNE 3.5 mph - N/A   Clear
11:15 PM 52.7 °F 42.8 °F 69% 30.12 in 10.0 mi NNE 5.8 mph - N/A   Clear
11:35 PM 52.7 °F 43.0 °F 70% 30.12 in 10.0 mi NNE 4.6 mph - N/A   Clear
11:55 PM 52.7 °F 43.9 °F 72% 30.12 in 10.0 mi NNE 3.5 mph - N/A   Clear